Have a Safe July 4th! 

Flight Track Log - Related Links

Times and Time Zones

All times are in EDT time to prevent confusion due to time zone crossing. See the N53NW flight status page for this flight to view local times or setup timezone preferences in your user account.

Time Position Orientation Groundspeed Altitude Reporting Facility
EDT Latitude Longitude Course Direction KTS MPH feet Rate Location/Type
Sun 11:15:30 AM 38.7333 -90.3333 90° East 189 217 1,700  Level Gateway (St. Louis) TRACON
Sun 11:16:12 AM 38.7333 -90.2833 90° East 217 250 3,400 2,362 Climbing Gateway (St. Louis) TRACON
Sun 11:17:37 AM 38.8000 -90.2258 34° Northeast 244 281 6,700 2,630 Climbing Kansas City Center
Sun 11:18:38 AM 38.8736 -90.2061 12° North 265 305 9,800 2,926 Climbing Kansas City Center
Sun 11:19:38 AM 38.9486 -90.1861 12° North 272 313 12,600 2,565 Climbing Kansas City Center
Sun 11:20:42 AM 39.0264 -90.1653 12° North 279 321 15,100 2,496 Climbing Kansas City Center
Sun 11:21:43 AM 39.1217 -90.1406 11° North 287 330 17,800 2,516 Climbing Kansas City Center
Sun 11:22:46 AM 39.2028 -90.1194 11° North 293 337 20,300 2,419 Climbing Kansas City Center
Sun 11:23:47 AM 39.2828 -90.0978 12° North 294 338 22,800 1,306 Climbing Kansas City Center
Sun 11:24:50 AM 39.3736 -90.0733 12° North 329 379 23,000 97 Climbing Kansas City Center
Sun 11:25:51 AM 39.4697 -90.0481 11° North 354 407 23,000  Level Kansas City Center
Sun 11:26:52 AM 39.5875 -90.0169 12° North 360 414 23,000  Level Kansas City Center
Sun 11:27:56 AM 39.6858 -89.9897 12° North 362 417 23,000  Level Kansas City Center
Sun 11:28:57 AM 39.7867 -89.9633 11° North 364 419 23,000  Level Kansas City Center
Sun 11:30:01 AM 39.8858 -89.9361 12° North 365 420 23,000  Level Kansas City Center
Sun 11:31:01 AM 39.9847 -89.9103 11° North 363 418 23,000  Level Kansas City Center
Sun 11:32:02 AM 40.0819 -89.8836 12° North 360 414 23,000  Level Kansas City Center
Sun 11:33:05 AM 40.1778 -89.8503 15° North 364 419 23,000  Level Kansas City Center
Sun 11:34:06 AM 40.2803 -89.7706 31° Northeast 361 415 23,000  Level Kansas City Center
Sun 11:35:08 AM 40.3642 -89.7006 32° Northeast 360 414 23,000  Level Kansas City Center
Sun 11:36:12 AM 40.4475 -89.6289 33° Northeast 361 415 23,000  Level Kansas City Center
Sun 11:37:13 AM 40.5311 -89.5567 33° Northeast 362 417 23,000 -738 Level Kansas City Center
Sun 11:38:14 AM 40.6144 -89.4869 32° Northeast 361 415 21,500 -1,659 Descending Kansas City Center
Sun 11:39:16 AM 40.7094 -89.4050 33° Northeast 348 400 19,600 -1,560 Descending Kansas City Center
Sun 11:40:44 AM 40.8200 -89.3117 33° Northeast 342 394 17,600 -1,440 Descending Chicago Center
Sun 11:41:46 AM 40.8986 -89.2442 33° Northeast 341 392 16,000 -1,548 Descending Chicago Center
Sun 11:42:48 AM 40.9753 -89.1789 33° Northeast 333 383 14,400 -1,548 Descending Chicago Center
Sun 11:43:50 AM 41.0489 -89.1136 34° Northeast 323 372 12,800 -1,694 Descending Chicago Center
Sun 11:44:52 AM 41.1353 -89.0431 32° Northeast 312 359 10,900 -1,366 Descending Chicago Center
Sun 11:45:53 AM 41.2133 -89.0014 22° Northeast 305 351 10,000 -439 Descending Chicago Center
Sun 11:46:55 AM 41.2908 -88.9564 24° Northeast 304 350 10,000  Level Chicago Center
Sun 11:47:57 AM 41.3650 -88.9097 25° Northeast 299 344 10,000  Level Chicago Center
Sun 11:48:59 AM 41.4383 -88.8644 25° Northeast 294 338 10,000 -484 Level Chicago Center
Sun 11:50:01 AM 41.4947 -88.7822 48° Northeast 303 349 9,000 -1,306 Descending Chicago Center
Sun 11:51:03 AM 41.5597 -88.6892 47° Northeast 289 333 7,300 -1,452 Descending Chicago Center
Sun 11:52:05 AM 41.6147 -88.6139 46° Northeast 286 329 6,000 -683 Descending Chicago Center
Sun 11:53:06 AM 41.6756 -88.5483 39° Northeast 283 326 5,900 -780 Descending Chicago Center
Sun 11:54:08 AM 41.7519 -88.5342 North 281 323 4,400 -919 Descending Chicago Center
Sun 11:55:10 AM 41.8258 -88.5167 10° North 274 315 4,000 -194 Descending Chicago Center
Sun 11:56:12 AM 41.9014 -88.4986 10° North 273 314 4,000  Level Chicago Center
Sun 11:57:14 AM 41.9917 -88.4769 10° North 275 316 4,000  Level Chicago Center
Sun 11:58:16 AM 42.0656 -88.4542 13° North 273 314 4,000  Level Chicago Center
Sun 11:59:18 AM 42.1236 -88.3892 40° Northeast 280 322 4,000  Level Chicago Center
Sun 12:00:20 PM 42.1744 -88.3094 49° Northeast 301 346 4,000  Level Chicago Center
Sun 12:01:22 PM 42.2147 -88.2219 58° Northeast 279 321 4,000  Level Chicago Center
Sun 12:02:23 PM 42.2558 -88.1311 59° Northeast 280 322 4,000 -293 Level Chicago Center
Sun 12:03:25 PM 42.2792 -88.0458 70° East 252 290 3,400 -774 Descending Chicago Center
Sun 12:04:27 PM 42.2431 -87.9697 123° Southeast 226 260 2,400 -581 Descending Chicago Center
Sun 12:05:29 PM 42.1975 -87.9469 160° South 195 224 2,200 -194 Descending Chicago Center
Sun 12:06:31 PM 42.1533 -87.9269 161° South 191 220 2,000 -629 Descending Chicago Center
Sun 12:07:33 PM 42.1325 -87.9122 152° Southeast 118 136 900 -1,065 Descending Chicago Center

Login

Don't have an account? Register now (free) for customized features, flight alerts, and more!